Regional Weather Roundup
Issued by NWS Wilmington, NC

Home | Current Version | Previous Version | Text Only | Print | Product List | Glossary On
Versions: 1 2 3 4 5 6 7 8 9 10 11 12 13 14 15 16 17 18 19 20 21 22 23 24 25 26 27 28 29 30 31 32 33 34 35 36 37 38 39 40 41 42 43 44 45 46 47 48 49 50
000
ASUS42 KILM 121510
RWRILM
RWRILM
REGIONAL HOURLY WEATHER ROUNDUP
NATIONAL WEATHER SERVICE WILMINGTON NC
1100 AM EDT SAT JUL 12 2014

NOTE: "FAIR" INDICATES FEW OR NO CLOUDS BELOW 12,000 FEET WITH NO
SIGNIFICANT WEATHER AND/OR OBSTRUCTIONS TO VISIBILITY.

...............WFO WILMINGTON COUNTY WARNING AREA...............

......COASTAL NC AND SC COUNTIES......

CITY           SKY/WX    TMP DP  RH WIND       PRES   REMARKS
WILMINGTON     PTSUNNY   84  72  67 CALM      30.21R
SOUTHPORT      MOSUNNY   80  73  77 CALM      30.22R
N MYRTLE BEACH PTSUNNY   80  73  79 E3        30.21S
MYRTLE BEACH   PTSUNNY   79  73  83 N7        30.21S

......INLAND NC AND SC COUNTIES.......

CITY           SKY/WX    TMP DP  RH WIND       PRES   REMARKS
LUMBERTON      MOSUNNY   82  70  66 CALM      30.21F
ELIZABETHTOWN  MOSUNNY   80  72  75 CALM      30.22S
WHITEVILLE     MOSUNNY   80  72  75 NE3       30.21S
FLORENCE       MOSUNNY   84  71  65 E6        30.21S
DARLINGTON     MOSUNNY   84  70  61 NE5       30.22F

....................REST OF NORTH CAROLINA......................

.........EASTERN NC.........

CITY           SKY/WX    TMP DP  RH WIND       PRES   REMARKS
CAPE HATTERAS  MOSUNNY   82  70  66 N6        30.22F
JACKSONVILLE   PTSUNNY   82  72  69 NW5       30.22S
MOREHEAD CITY  MOSUNNY   83  72  69 NE8       30.22R
KENANSVILLE    MOSUNNY   81  71  70 CALM      30.23S
NEW BERN       MOSUNNY   84  71  65 E9        30.24R
ELIZABETH CITY MOSUNNY   80  71  74 VRB5      30.24R

.........CENTRAL NC.........

CITY           SKY/WX    TMP DP  RH WIND       PRES   REMARKS
RALEIGH DURHAM PTSUNNY   82  67  60 SE6       30.23S
ROCKY MOUNT    PTSUNNY   81  71  71 NW3       30.23F
ROANOKE RAPIDS NOT AVBL
FAYETTEVILLE   PTSUNNY   82  71  69 VRB5      30.22S
HOFFMAN        NOT AVBL

.........WESTERN NC.........

CITY           SKY/WX    TMP DP  RH WIND       PRES   REMARKS
CHARLOTTE      PTSUNNY   82  67  60 E3        30.25S
GREENSBORO     PTSUNNY   79  67  66 CALM      30.25S
HICKORY        NOT AVBL
BOONE          NOT AVBL
ASHEVILLE      NOT AVBL

.....................REST OF SOUTH CAROLINA.....................

.........EASTERN SC.........

CITY           SKY/WX    TMP DP  RH WIND       PRES   REMARKS
CHARLESTON     PTSUNNY   85  73  67 SE5       30.21R HX  91
BEAUFORT MCAS  CLOUDY    78  71  79 CALM      30.22S
HILTON HEAD    NOT AVBL

.........CENTRAL SC.........

CITY           SKY/WX    TMP DP  RH WIND       PRES   REMARKS
COLUMBIA       PTSUNNY   82  71  69 SE3       30.21S
ORANGEBURG     MOSUNNY   83  71  67 CALM      30.22R
SUMTER SHAW    NOT AVBL

.........WESTERN SC.........

CITY           SKY/WX    TMP DP  RH WIND       PRES   REMARKS
GREENVILLE     NOT AVBL
ROCK HILL      MOSUNNY   81  69  67 VRB6      30.25R
ANDERSON       PTSUNNY   85  69  58 SE9       30.23R
CLEMSON        NOT AVBL
GREENWOOD      MOSUNNY   85  69  58 NE8       30.24S


...................COASTAL AND OFFSHORE REPORTS..................

................LOCAL PIERS AND NC RESERVE................


STATION/POSITION TIME  SKY/WX   TEMP    WIND        PRES    VSBY
                                AIR SEA DIR/SP/G
                 (UTC)          (F)     (DEG/KT/KT) (MB)    (MI)
JOHNY MRCER PIER 1500            80 83   90/  5/  6 1022.5S
NC RESRV MASNBRO 1400            82      80/  2     1023.0S
OCEAN CREST PIER 1500            81 83  140/  2/  5 1022.1R
SPRINGMAID  PIER 1500            79 83  110/  2/  4 1023.0S


................COASTAL AND OFFSHORE BUOYS................


STATION/POSITION TIME  SKY/WX   TEMP    WIND        PRES    VSBY
                                AIR SEA DIR/SP/G
                 (UTC)          (F)     (DEG/KT/KT) (MB)    (MI)
DIMNDSHOAL 41025 1500                   VRB  4/  8  1022.9F
WVE H/P(F/S)=  2/ 7 WND WVE H/P(F/S)=  2/ 4 SWL H/P/D(F/S/D)=  2/120/ 7

CAPE LOOKOUT     1400            80      20/  6/  8 1022.9R
ONSLOW BAY 41036 1400            79 81  350/  6/  6 1023.4R
5 WRITEBCH 41038 1400            76 81   20/  4/  4 1023.5S
MASONBORO  41110 1500               82                N/A
WVE H/P(F/S)=  2/ 5 WND WVE H/P(F/S)=  2/ 5

WILM HARBR 41108 NOT AVBL
27WRITEBCH 41037 1400            77 82   20/  4/  6 1022.8R
FRYING PAN 41013 NOT AVBL
SUNST NRSH 41024 1400            81     200/  4/  6 1022.8R
CAPRS NRSH 41029 1400            80     160/  8/ 10   N/A
EDISTO     41004 1500            79 82   90/  8/  8 1022.3R
WVE H/P(F/S)=  2/ 8 WND WVE H/P(F/S)=  2/ 3 SWL H/P/D(F/S/D)=  2/ 8



..........OFFSHORE BUOYS BEYOND 100 NM OFFSHORE...........
.....IN A TRIANGLE---HAT TO BERMUDA TO BAHAMAS TO HAT.....


STATION/POSITION TIME  SKY/WX   TEMP    WIND        PRES    VSBY
                                AIR SEA DIR/SP/G
                 (UTC)          (F)     (DEG/KT/KT) (MB)    (MI)
150E HAT   41001 NOT AVBL
W BERMUDA  41048 1429            78 82  160/  8/ 10 1023.2S
WVE H/P(F/S)=  3/ 8 WND WVE H/P(F/S)=  2/ 4 SWL H/P/D(F/S/D)=  3/130/ 8

ATLANTIC S 41049 1437            80 84  100/ 14/ 19 1023.1R
WVE H/P(F/S)=  4/ 8 WND WVE H/P(F/S)=  3/ 5 SWL H/P/D(F/S/D)=  3/140/ 8

E BAHAMAS  41046 1450            82 84   90/ 10/ 12 1020.6R
WVE H/P(F/S)=  4/ 8 WND WVE H/P(F/S)=  2/ 5 SWL H/P/D(F/S/D)=  3/130/ 8

NE BAHAMAS 41047 1420            83 85  120/  8/ 10 1022.3R
WVE H/P(F/S)=  4/ 8 WND WVE H/P(F/S)=  2/ 4 SWL H/P/D(F/S/D)=  3/140/ 8

120E CANVRL41010 1500            81 83   80/  6/  8 1021.8R
WVE H/P(F/S)=  2/ 9 WND WVE H/P(F/S)=  2/ 4 SWL H/P/D(F/S/D)=  2/ 80/ 9


END


USA.gov is the U.S. government's official web portal to all federal, state and local government web resources and services.